Tracking 19795 objects as of 17-Jul-2019
HD Live streaming from Space Station
objects crossing your sky now

EXPLORER 16

Track EXPLORER 16 now!
10-day predictions
EXPLORER 16 is classified as:


NORAD ID: 506
Int'l Code: 1962-070A
Perigee: 749.5 km
Apogee: 1,156.1 km
Inclination: 52.0 °
Period: 104.0 minutes
Semi major axis: 7323 km
RCS: 0.6378 m2 (medium)
Launch date: December 16, 1962
Source: United States (US)
Launch site: WALLOPS ISLAND (WLPIS)
aabbcc
Your satellite tracking list
Your tracking list is empty




NASA's NSSDC Master Catalog

Two Line Element Set (TLE):
1   506U 62070A   19198.47295670 -.00000100  00000-0  28400-4 0  9994
2   506  52.0034 277.2406 0277582 214.8716 143.3741 13.85149590858969
Source of the keplerian elements: AFSPC